Location: Hradec Kralove
(50.2170°N, 15.8330°E)
Time: 07:46:01
(UTC+02:00)

Envisat - Visible Passes

Search period start: 28 September 2020 00:00
Search period end: 08 October 2020 00:00
Orbit: 764 x 766 km, 98.1° (Epoch: 27 September)

Date Brightness Start Highest point End Pass type
(mag) Time Alt. Az. Time Alt. Az. Time Alt. Az.
29 Sep 5.2 06:20:36 10° NNE 06:25:09 32° E 06:29:39 10° SSE visible
29 Sep 6.1 19:20:18 10° SW 19:24:01 20° W 19:27:46 10° NW visible
30 Sep 6.2 05:44:49 10° NE 05:47:56 16° E 05:51:03 10° SE visible
01 Oct 6.5 19:47:48 10° WSW 19:49:50 12° W 19:51:52 10° WNW visible
02 Oct 5.6 06:09:26 10° NE 06:13:41 26° E 06:17:54 10° SSE visible
02 Oct 5.7 19:08:24 10° SSW 19:12:32 25° W 19:16:41 10° NW visible
03 Oct 6.4 05:34:06 10° ENE 05:36:24 13° E 05:38:43 10° ESE visible
04 Oct 6.3 19:35:22 10° WSW 19:38:18 15° W 19:41:15 10° NW visible
05 Oct 5.9 05:58:20 10° NE 06:02:12 21° E 06:06:02 10° SE visible
05 Oct 5.3 18:56:38 10° SSW 19:01:04 30° W 19:05:33 10° NNW visible
06 Oct 6.7 05:24:15 10° ENE 05:24:52 10° E 05:25:30 10° E visible
07 Oct 5.0 06:23:15 10° NNE 06:27:53 34° E 06:32:29 10° SSE visible
07 Oct 6.1 19:23:14 10° SW 19:26:47 19° W 19:30:21 10° NW visible
